#timestamp,LO_Frequency,Hit,StdDev 
1549083615.2,286047001.9,N
1549083635.1,286047005.0,N
1549083636.0,286047005.0,N
1549083655.8,286047005.9,N
1549083675.7,286047003.7,N
1549083695.5,286047003.1,N
1549083715.3,286047003.9,N
1549083735.2,286047005.1,N
1549083755.0,286047005.7,N
1549083755.9,286047005.7,N
1549083775.7,286047005.1,N
1549083795.6,286047005.3,N
1549083815.4,286047004.9,N
1549083835.3,286047005.7,N
1549083855.1,286047003.4,N
1549083856.0,286047003.4,N
1549083875.8,286047004.2,N
1549083895.7,286047001.9,N
1549083915.5,286047001.4,N
1549083935.3,286047002.3,N
1549083955.2,286047002.3,N
1549083975.0,286047003.6,N
1549083975.9,286047003.6,N
1549083995.8,286047007.1,Y
1549084015.6,286047000.0,P
1549084035.4,286046999.9,N
1549084055.3,286046999.8,N
1549084075.1,286047000.6,N
1549084095.9,286046999.9,N
1549084115.7,286047000.6,N
1549084135.5,286047000.8,N
1549084155.4,286046999.3,N
1549084175.2,286046998.4,N
1549084195.0,286046998.8,N
1549084195.9,286046998.8,N
1549084215.8,286046996.5,N
1549084235.6,286046998.4,N
1549084255.5,286046999.1,N
1549084275.3,286046997.3,N
1549084295.1,286046997.0,N
1549084315.9,286047000.3,N
1549084335.7,286046999.8,N
1549084385.6,286047000.6,E
1549084395.5,286046998.9,N
1549084415.3,286046999.3,P
1549084435.2,286047001.0,P
1549084455.0,286046998.1,N
1549084455.9,286046998.1,N
1549084475.8,286047000.5,N
1549084495.6,286047000.1,N
1549084515.4,286047001.7,N
1549084535.3,286047000.1,N
1549084555.1,286047002.3,N
1549084575.8,286046999.8,N
1549084595.7,286047000.8,N
1549084615.5,286047000.9,N
1549084635.4,286047000.4,N
1549084655.2,286046998.1,N
1549084675.0,286047000.6,N
1549084675.9,286047000.6,N
1549084695.8,286047003.6,N
1549084715.6,286047006.0,Y
1549084735.4,286047001.5,P
1549084755.3,286047002.3,P
1549084775.1,286047002.1,N
1549084795.9,286047002.6,Y
1549084815.7,286046998.5,P
1549084835.5,286046998.9,N
1549084855.4,286046997.0,N
1549084875.2,286046998.6,N
1549084895.0,286046998.8,N
1549084896.0,286046998.8,N
1549084915.8,286046998.5,N
1549084935.6,286046998.8,N
1549084955.5,286046997.0,N
1549084975.3,286046997.5,N
1549084995.1,286046997.7,N
1549085015.9,286046997.2,N
1549085035.7,286046998.7,N
1549085055.6,286047003.0,N
1549085075.4,286047002.4,N
1549085095.2,286046999.7,N
1549085115.1,286047002.5,N
1549085116.0,286047002.5,N
1549085135.8,286047000.2,N
1549085155.6,286047002.0,N
1549085175.5,286047000.9,N
1549085195.3,286046998.2,N
1549085215.2,286046998.6,N
1549085235.9,286047000.5,N
1549085255.7,286047002.3,N
1549085275.6,286047002.3,N
1549085295.4,286047002.7,N
1549085315.2,286046999.1,N
1549085335.1,286047000.0,N
1549085336.0,286047000.0,N
1549085355.8,286047000.9,N
1549085375.7,286047000.1,N
1549085395.5,286047000.0,N
1549085415.3,286047001.2,N
1549085435.2,286047000.5,N
1549085455.0,286047001.4,N
1549085455.9,286047001.4,N
1549085475.7,286047002.5,N
1549085495.6,286047000.2,N
1549085515.4,286046998.5,N
1549085535.3,286047002.5,N
1549085555.1,286047001.0,N
1549085556.0,286047001.0,N
1549085575.8,286046998.1,N
1549085595.7,286046999.0,N
1549085615.5,286046997.8,N
1549085635.4,286046997.1,N
1549085655.2,286046996.7,N
1549085675.0,286046998.8,N
1549085675.9,286046998.8,N
1549085695.8,286046999.1,N
1549085715.6,286046999.2,N
1549085735.4,286046999.3,N
1549085755.3,286046997.3,N
1549085775.1,286046996.6,N
1549085795.9,286047000.6,N
1549085815.7,286046998.1,N
1549085835.5,286046998.6,N
1549085855.4,286046997.3,N
1549085875.2,286046998.0,N
1549085895.0,286046995.2,N
1549085895.9,286046995.2,N
1549085915.8,286046997.0,N
1549085935.6,286046997.8,N
1549085955.5,286046995.1,N
1549085975.3,286046993.4,Y
1549085995.1,286046994.9,P
1549086015.9,286046995.9,N
1549086035.7,286046995.6,N
1549086055.6,286046992.2,Y
1549086075.4,286046997.7,P
1549086095.2,286046997.5,P
1549086115.1,286046993.8,P
1549086116.0,286046993.8,Y
1549086135.8,286046996.6,P
1549086155.6,286046995.4,P
1549086175.5,286046995.9,P
1549086195.3,286046992.1,Y
1549086215.2,286046996.0,P
1549086235.9,286046992.1,P
1549086255.7,286046992.4,P
1549086275.6,286046992.8,Y
1549086295.4,286046995.5,P
1549086315.3,286046996.3,P
1549086335.1,286046993.5,P
1549086336.0,286046993.5,Y
1549086355.8,286046998.7,P
1549086375.7,286046998.9,N
1549086395.5,286046997.1,N
1549086415.4,286046996.2,N
1549086435.2,286046994.5,Y
1549086455.0,286046997.5,P
1549086455.9,286046997.5,P
1549086475.8,286046994.9,P
1549086495.6,286046996.2,Y
1549086515.4,286046999.5,P
1549086535.3,286046998.7,N
1549086555.1,286046999.6,N
1549086575.9,286046999.0,N
1549086595.7,286046996.7,Y
1549086615.5,286046999.3,P
1549086635.4,286046998.8,P
1549086655.2,286046999.0,P
1549086675.1,286047001.0,Y
1549086676.0,286047001.0,P
1549086695.8,286047000.4,N
1549086715.6,286046999.7,N
1549086735.5,286046999.8,N
1549086755.3,286047000.1,N
1549086775.2,286047004.0,Y
1549086795.9,286047004.1,P
1549086815.7,286047004.2,N
1549086835.6,286047003.9,N
1549086855.4,286047004.1,N
1549086875.2,286047003.7,N
1549086895.1,286047006.0,Y
1549086896.0,286047006.0,P
1549086915.8,286047001.7,N
1549086935.7,286047003.8,N
1549086955.5,286047005.8,Y
1549086975.3,286047000.5,P
1549086995.2,286046999.4,N
1549087015.0,286046999.4,N
1549087015.9,286046999.4,N
1549087035.8,286046998.5,N
1549087055.6,286046999.3,N
1549087075.4,286046997.1,N
1549087095.3,286046997.4,N
1549087115.1,286046994.9,N
1549087135.9,286046995.7,N
1549087155.7,286046993.4,N
1549087175.5,286046993.4,N
1549087195.4,286046996.0,N
